Regional Weather Roundup
Issued by NWS

Current Version | Previous Version | Text Only | Print | Product List | Glossary On
Versions: 1 2 3 4 5 6 7 8 9 10 11 12 13 14 15 16 17 18 19 20 21 22 23 24 25 26 27 28 29 30 31 32 33 34 35 36 37 38 39 40 41 42 43 44 45 46 47 48 49 50
931
ASUS45 KCYS 111110
RWRWY

WYOMING REGIONAL WEATHER ROUNDUP
NATIONAL WEATHER SERVICE CHEYENNE WY
400 AM MST THU FEB 11 2016

NOTE:  "FAIR" INDICATES FEW OR NO CLOUDS BELOW 12,000 FEET
WITH NO SIGNIFICANT WEATHER AND/OR OBSTRUCTIONS TO VISIBILITY.

WYZ001-111200-
YELLOWSTONE NATIONAL PARK

CITY           SKY/WX    TMP DP  RH WIND       PRES   REMARKS
LK YELLOWSTONE   N/A     22  18  85 CALM      30.33S
W YELLOWSTONE  NOT AVBL

$$
WYZ002>013-054>058-071-098>099-111200-
NORTHERN WYOMING

CITY           SKY/WX    TMP DP  RH WIND       PRES   REMARKS
JACKSON        FAIR      10   9  92 CALM      30.34F
CODY           FAIR      52  18  25 SW6       30.07F
GREYBULL       FAIR      30  25  81 NE3       30.09S
WORLAND        FAIR      33  26  75 SE5       30.08F WCI  29
SHERIDAN       FAIR      38  28  67 S3        30.00S
BUFFALO        CLOUDY    45  22  40 CALM      30.03F
GILLETTE       FAIR      43  24  47 W10       30.01S
HULETT         CLOUDY    41  27  56 SW8       30.02R
NEWCASTLE      FAIR      32  23  69 N3        30.04S

$$
WYZ014>020-022>026-101>103-111200-
CENTRAL WYOMING

CITY           SKY/WX    TMP DP  RH WIND       PRES   REMARKS
BIG PINEY      FAIR      18  12  77 NW5       30.34S WCI  11
PINEDALE         N/A     14  10  85 NW7       30.34F WCI   4
DUBOIS         FAIR      36  14  41 NW24G30   30.21F WCI  24
LANDER         FAIR      30  16  56 S3        30.16S
RIVERTON       FAIR      29  17  61 SW6       30.15F WCI  23
CASPER         FAIR      35  20  54 SW22      30.12F WCI  23
DOUGLAS        FAIR      28  23  81 CALM        N/A

$$
WYZ021-027>030-104>119-111200-
SOUTHERN WYOMING

CITY           SKY/WX    TMP DP  RH WIND       PRES   REMARKS
EVANSTON       FAIR      26  11  52 SW9       30.38S WCI  17
KEMMERER       FAIR      30  14  51 W8        30.36  WCI  23
FORT BRIDGER   SUNNY     32  16  51 W22       30.37S WCI  19
ROCK SPRINGS   FAIR      31  14  49 SW15      30.32F WCI  20
DIXON          FAIR      12   6  77 CALM      30.38R
RAWLINS        FAIR      31  17  56 SW20      30.24F WCI  19
SARATOGA       FAIR      28  16  59 SE9G17    30.28F WCI  20
LARAMIE        FAIR      34  15  46 SW16      30.20S WCI  24
CHEYENNE       FAIR      42  15  33 W22G33    30.12F
TORRINGTON     FAIR      33  22  63 N3        30.08F
PINE BLUFFS    FAIR      30  21  69 SW5       30.13S WCI  25

$$




USA.gov is the U.S. government's official web portal to all federal, state and local government web resources and services.